RH
95 93 100 100 100 100 100 100 100 93 100 97 87 78 72 68 62 58 50 46 63 84 97 100 100 100 98 63 46 56 59 74
84 76 87 98 92 85 73 66 58 78 88 98 91 87 82 77 63 73 64 73 100 100 100 100 100 100 100 91 76 82 88 72
83 93 79 73 68 73 65 62 64 89 100 100 91 90 91 87 65 88 84 80 100 100 100 100 100 100 100 100 92 80 82 92
74 91 78 66 69 74 88 91 100 100 100 100 94 90 100 100 77 92 100 86 88 100 100 100 100 100 100 90 90 86 86 94
85 79 79 63 62 66 81 99 100 100 99 100 100 100 100 100 89 100 100 100 78 88 100 100 100 100 100 100 99 92 82 75
68 83 80 74 69 76 75 82 90 100 100 100 100 100 100 100 100 100 100 100 100 90 95 100 100 100 100 100 100 100 96 98
44 44 47 46 61 64 60 63 62 76 99 100 100 100 100 100 100 100 100 100 100 100 99 96 86 100 100 100 100 100 100 100
42 42 40 34 34 38 38 40 64 94 100 100 100 100 100 100 80 92 100 99 58 84 61 82 100 100 80 88 82 86 62 63
36 35 44 57 67 54 45 46 78 69 74 92 92 99 100 100 90 64 76 98 100 91 87 56 46 69 88 97 68 78 90 100
47 55 61 55 89 100 93 85 60 57 51 55 58 62 62 98 100 100 90 84 98 100 100 100 100 69 62 88 89 100 100 80
100 100 100 100 98 100 100 100 100 100 100 97 90 64 61 71 77 83 100 100 98 100 100 100 98 99 78 87 99 86 98 89
45 59 61 80 100 100 100 100 100 100 96 100 100 100 100 100 100 100 100 100 100 100 100 100 100 100 100 100 100 100 100 100
44 39 45 54 54 57 58 83 89 76 96 100 100 100 100 100 100 100 100 100 100 100 100 100 100 100 100 100 100 97 90 98
48 53 67 70 76 78 72 66 63 63 64 73 86 93 83 82 82 89 75 78 96 100 87 82 98 100 96 100 100 100 100 100
65 65 72 70 71 72 74 72 74 76 78 78 77 72 74 76 73 66 62 69 75 73 78 81 63 58 68 82 92 83 69 78
75 70 67 68 70 68 66 71 72 59 51 46 43 44 44 48 47 42 40 43 41 39 42 42 42 41 46 50 57 59 61 66
70 72 76 88 84 74 71 72 78 60 58 56 46 37 38 37 36 38 30 28 27 27 28 33 38 38 41 44 50 50 62 82
84 87 92 88 83 82 85 81 79 62 57 54 41 36 26 18 18 20 20 18 16 17 17 19 23 31 39 42 56 43 63 70
81 89 78 60 57 53 48 41 37 33 29 25 22 18 20 19 16 15 14 13 12 13 13 14 17 22 26 35 24 38 42 55
Wind_Speed
77 73 67 67 71 73 76 78 71 73 69 65 62 61 60 58 58 60 60 55 53 56 55 55 55 51 47 48 51 52 50 48
78 72 65 67 72 79 82 83 82 80 77 72 68 61 62 62 58 57 54 53 54 54 54 53 53 51 50 49 52 54 54 53
80 73 70 72 72 80 82 82 80 73 75 70 71 72 66 60 58 56 55 53 56 55 56 55 54 53 50 50 52 53 52 50
83 81 82 80 79 75 77 76 68 72 73 76 76 69 62 62 57 58 59 56 56 57 59 60 57 53 56 57 55 54 52 53
89 86 87 84 82 80 74 73 72 76 79 77 74 69 68 65 63 62 62 59 57 60 59 62 58 58 60 60 59 56 53 54
95 93 90 88 85 81 76 74 74 76 78 78 77 72 72 71 70 65 65 65 64 62 63 62 65 62 62 65 65 62 59 59
95 95 94 83 76 76 76 74 77 80 79 79 75 75 77 76 76 72 65 65 66 65 65 60 59 63 61 61 64 66 66 68
84 86 87 83 81 78 73 72 73 74 79 79 76 79 78 76 73 72 70 65 61 60 63 63 71 69 65 67 68 66 69 70
73 77 72 73 70 73 70 70 70 70 74 77 77 74 80 76 76 69 75 78 75 72 73 69 68 67 76 79 72 73 73 80
82 76 79 79 78 77 77 81 82 83 82 81 77 78 72 77 79 77 76 80 87 83 85 82 81 84 78 78 80 85 85 85
74 76 86 85 79 82 83 84 86 87 90 94 93 90 88 86 83 80 82 82 83 90 93 92 91 95 91 82 86 87 89 94
79 80 80 87 91 95 96 101 102 103 102 98 97 98 97 97 97 93 92 91 94 95 96 100 101 103 100 92 91 98 98 97
89 85 79 78 80 84 94 104 107 104 105 107 107 109 110 108 107 106 102 103 102 108 107 111 112 112 109 110 114 119 113 115
93 85 82 81 82 84 90 90 90 95 98 102 108 110 113 113 114 114 115 116 115 113 119 118 121 120 121 123 121 120 122 123
92 86 85 83 81 82 87 89 90 95 97 99 102 106 110 116 120 120 119 121 124 125 124 126 122 122 124 125 123 118 106 108
90 90 85 83 84 84 86 87 90 94 97 100 103 106 113 117 117 114 110 109 108 107 109 109 106 104 104 106 106 103 99 93
89 86 85 87 88 87 88 89 92 95 96 97 98 95 93 96 96 93 92 90 87 85 85 86 88 87 88 89 90 90 83 83
88 87 87 87 89 88 89 90 93 90 89 91 87 86 84 81 79 80 80 77 75 72 71 71 73 76 78 81 82 81 80 79
89 90 89 88 87 86 85 85 85 85 86 83 83 79 77 74 70 72 71 69 66 64 63 63 65 66 71 73 74 67 73 67
Wind_Direction
290 291 287 283 285 286 287 288 289 290 287 287 290 294 293 293 294 297 299 295 280 280 281 280 279 273 278 280 275 278 280 283
288 289 283 283 284 285 286 288 291 292 289 288 289 290 289 292 293 286 289 277 274 278 277 278 274 270 275 275 274 272 273 272
286 285 282 284 285 286 289 292 293 286 286 285 286 292 289 289 290 281 279 274 274 277 276 274 273 273 270 279 278 274 271 269
280 281 283 285 287 286 288 290 287 283 281 282 286 288 280 284 285 277 270 270 271 278 278 276 276 273 277 280 278 272 273 270
282 280 279 280 281 282 280 279 278 277 278 279 281 278 276 279 281 277 273 269 270 272 275 273 273 275 277 280 279 277 275 277
282 282 282 283 282 281 280 274 273 271 272 273 275 277 274 274 276 277 274 270 271 274 271 270 271 274 279 277 278 275 276 279
280 280 279 280 277 273 272 269 269 271 271 268 272 273 272 272 276 277 273 275 270 271 273 268 272 274 272 276 279 277 277 281
277 277 277 278 275 274 275 273 270 268 268 266 269 273 273 271 277 272 268 270 269 268 270 268 264 267 270 273 275 275 278 281
277 280 279 280 281 279 280 279 275 273 269 266 267 268 268 271 273 274 267 264 266 265 270 273 271 269 267 269 273 277 275 276
284 288 288 289 289 287 286 287 287 283 278 277 276 274 271 267 272 272 274 273 268 266 265 267 274 279 276 271 271 272 273 274
280 276 279 276 276 277 276 276 279 280 282 282 282 281 280 277 273 273 270 268 267 267 269 265 269 273 280 275 273 274 272 275
275 273 274 273 274 275 273 270 273 276 275 270 270 271 273 274 274 271 271 267 269 264 264 264 267 267 272 275 270 275 273 272
281 281 282 281 279 278 275 274 273 274 271 270 270 270 271 271 270 268 268 264 266 264 265 265 264 267 268 273 273 275 276 276
284 284 282 281 278 279 281 278 276 275 275 275 273 271 269 269 269 267 267 266 263 264 268 267 267 266 270 272 272 272 273 274
286 286 284 280 279 278 276 277 279 279 280 281 280 279 277 274 273 274 274 273 270 269 270 271 271 270 271 270 271 272 274 271
287 285 283 281 281 280 279 279 279 279 279 278 276 276 275 275 276 276 276 274 273 272 271 270 270 271 271 272 271 271 268 268
288 288 287 287 289 286 284 284 285 285 285 282 280 280 280 278 279 281 279 276 274 273 271 269 269 268 267 267 266 266 266 264
288 287 286 285 285 282 282 283 283 284 282 282 284 282 281 281 281 279 279 279 277 273 270 268 265 261 260 261 262 264 263 262
287 286 285 286 284 284 284 284 284 285 286 286 286 286 286 285 284 281 279 278 278 274 268 263 261 259 258 256 260 259 260 261